Location: Newark
(45.5167°N, 11.1667°E)
Time: 22:38:01
(UTC+00:00)

Explorer 7 - Pass Details

Date: 22 December 2019
Orbit: 485 x 679 km, 50.3° (Epoch: 18 January)

Event Time Altitude Azimuth Distance (km) Brightness Sun altitude
Rises 14:08:27 0° 286° (WNW) 2,956 10.9 10.4°
Reaches altitude 10° 14:10:49 10° 292° (WNW) 2,069 10.1 10.2°
Maximum altitude 14:15:30 50° 8° (N) 858 7.6 9.6°
Drops below altitude 10° 14:20:17 10° 84° (E) 2,117 9.4 9.1°
Sets 14:22:43 0° 89° (E) 3,031 10.2 8.8°
